Weather History for KRKR - November, 2013

Change the Weather History Date:

Monday, November 11, 2013

  Actual Average (KFSM) Record (KFSM)
Temperature  
Mean Temperature 56 °F 54 °F  
Max Temperature 71 °F 65 °F 85 °F (1989)
Min Temperature 42 °F 42 °F 15 °F (1950)
Degree Days  
Heating Degree Days 8 12  
Month to date heating degree days 110  
Since 1 July heating degree days 264  
Growing Degree Days 6 (Base 50)    
Moisture  
Dew Point 51 °F    
Average Humidity 86    
Maximum Humidity 100    
Minimum Humidity 53    
Precipitation  
Precipitation 0.00 in 0.16 in 0.93 in (1992)
Month to date precipitation 1.65  
Year to date precipitation 39.38  
Sea Level Pressure  
Sea Level Pressure 30.25 in    
Wind  
Wind Speed 1 mph (WSW)    
Max Wind Speed 9 mph    
Max Gust Speed -    
Visibility 8 miles    
Events Fog    
T = Trace of Precipitation, MM = Missing Value Source: NWS Daily Summary

Daily Weather History Graph

Daily Weather History Graph

Search for Another Location

Airport or City:

Trip Planner

Search our weather history database for the weather conditions in past years. The results will help you decide how hot, cold, wet, or windy it might be!

Date:

Astronomy

Nov. 11, 2013 Rise Set
Actual Time 6:49 AM CST 5:15 PM CST
Civil Twilight 6:22 AM CST 5:42 PM CST
Nautical Twilight 5:52 AM CST 6:12 PM CST
Astronomical Twilight 5:22 AM CST 6:42 PM CST
Moon 1:44 PM CST (11/11) 12:49 AM CST (11/11)
Length of Visible Light 11h 19m
Length of Day
10h 26m
Waxing Gibbous, 66% of the Moon is Illuminated
Nov 11
Waxing Gibbous
Nov 17
Full
Nov 25
Last Quarter
Dec 2
New
Dec 9
First Quarter

Hourly Weather History & Observations

Time (CST) Temp. Dew Point Humidity Pressure Visibility Wind Dir Wind Speed Gust Speed Precip Events Conditions
12:15 AM 51.8 °F 51.8 °F 100% 30.28 in 10.0 mi Calm Calm - N/A   Unknown
12:35 AM 48.2 °F 48.2 °F 100% 30.28 in 7.0 mi Calm Calm - N/A   Unknown
12:55 AM 48.2 °F 48.2 °F 100% 30.28 in 10.0 mi Calm Calm - N/A   Unknown
1:15 AM 46.4 °F 46.4 °F 100% 30.28 in 7.0 mi Calm Calm - N/A   Unknown
1:35 AM 48.2 °F 48.2 °F 100% 30.28 in 10.0 mi Calm Calm - N/A   Unknown
1:55 AM 44.6 °F 44.6 °F 100% 30.28 in 10.0 mi Calm Calm - N/A   Unknown
2:15 AM 44.6 °F 44.6 °F 100% 30.27 in 7.0 mi Calm Calm - N/A   Unknown
2:35 AM 46.4 °F 46.4 °F 100% 30.27 in 10.0 mi Calm Calm - N/A   Unknown
2:55 AM 44.6 °F 44.6 °F 100% 30.27 in 10.0 mi Calm Calm - N/A   Unknown
3:15 AM 44.6 °F 44.6 °F 100% 30.27 in 7.0 mi Calm Calm - N/A   Unknown
3:35 AM 44.6 °F 44.6 °F 100% 30.27 in 1.2 mi Calm Calm - N/A   Mist
3:55 AM 44.6 °F 44.6 °F 100% 30.27 in 3.0 mi Calm Calm - N/A   Mist
4:15 AM 44.6 °F 44.6 °F 100% 30.27 in 2.0 mi Calm Calm - N/A   Mist
4:35 AM 42.8 °F 42.8 °F 100% 30.27 in 7.0 mi Calm Calm - N/A   Unknown
4:55 AM 42.8 °F 42.8 °F 100% 30.27 in 0.8 mi Calm Calm - N/A   Mist
5:15 AM 42.8 °F 42.8 °F 100% 30.28 in 0.8 mi Calm Calm - N/A   Mist
5:35 AM 42.8 °F 42.8 °F 100% 30.28 in 1.5 mi Calm Calm - N/A   Mist
5:55 AM 42.8 °F 42.8 °F 100% 30.28 in 0.8 mi Calm Calm - N/A   Mist
6:15 AM 42.8 °F 42.8 °F 100% 30.29 in 0.5 mi Calm Calm - N/A Fog Fog
6:35 AM 42.8 °F 42.8 °F 100% 30.29 in 0.5 mi Calm Calm - N/A Fog Fog
6:55 AM 42.8 °F 42.8 °F 100% 30.29 in 0.2 mi Calm Calm - N/A Fog Fog
7:15 AM 42.8 °F 42.8 °F 100% 30.30 in 0.8 mi Calm Calm - N/A   Mist
7:35 AM 42.8 °F 42.8 °F 100% 30.30 in 1.0 mi Calm Calm - N/A   Mist
7:55 AM 42.8 °F 42.8 °F 100% 30.30 in 7.0 mi Calm Calm - N/A   Unknown
8:15 AM 44.6 °F 44.6 °F 100% 30.30 in 7.0 mi Calm Calm - N/A   Unknown
8:35 AM 50.0 °F 50.0 °F 100% 30.30 in 10.0 mi Calm Calm - N/A   Unknown
8:55 AM 51.8 °F 51.8 °F 100% 30.30 in 10.0 mi Calm Calm - N/A   Unknown
9:15 AM 53.6 °F 53.6 °F 100% 30.30 in 10.0 mi Calm Calm - N/A   Unknown
9:35 AM 55.4 °F 55.4 °F 100% 30.30 in 10.0 mi Calm Calm - N/A   Unknown
9:55 AM 59.0 °F 53.6 °F 82% 30.30 in 10.0 mi Calm Calm - N/A   Unknown
10:15 AM 60.8 °F 53.6 °F 77% 30.29 in 10.0 mi Calm Calm - N/A   Unknown
10:35 AM 60.8 °F 51.8 °F 72% 30.28 in 10.0 mi Calm Calm - N/A   Unknown
10:55 AM 62.6 °F 51.8 °F 68% 30.27 in 10.0 mi Calm Calm - N/A   Unknown
11:15 AM 64.4 °F 53.6 °F 68% 30.26 in 10.0 mi Calm Calm - N/A   Unknown
11:35 AM 66.2 °F 53.6 °F 64% 30.25 in 10.0 mi Calm Calm - N/A   Unknown
11:55 AM 68.0 °F 53.6 °F 60% 30.24 in 10.0 mi WSW 4.6 mph - N/A   Unknown
12:15 PM 68.0 °F 53.6 °F 60% 30.23 in 10.0 mi SW 6.9 mph - N/A   Unknown
12:35 PM 71.6 °F 55.4 °F 57% 30.23 in 10.0 mi SW 6.9 mph - N/A   Unknown
12:55 PM 71.6 °F 55.4 °F 57% 30.22 in 10.0 mi South 4.6 mph - N/A   Unknown
1:15 PM 71.6 °F 55.4 °F 57% 30.21 in 10.0 mi SW 3.5 mph - N/A   Unknown
1:35 PM 71.6 °F 55.4 °F 57% 30.20 in 10.0 mi SSW 5.8 mph - N/A   Unknown
1:55 PM 71.6 °F 53.6 °F 53% 30.20 in 10.0 mi SSW 5.8 mph - N/A   Unknown
2:15 PM 71.6 °F 53.6 °F 53% 30.20 in 10.0 mi Calm Calm - N/A   Unknown
2:35 PM 71.6 °F 55.4 °F 57% 30.19 in 10.0 mi SSW 5.8 mph - N/A   Unknown
2:55 PM 71.6 °F 55.4 °F 57% 30.19 in 10.0 mi South 4.6 mph - N/A   Unknown
3:15 PM 71.6 °F 55.4 °F 57% 30.19 in 10.0 mi NNE 3.5 mph - N/A   Unknown
3:35 PM 71.6 °F 55.4 °F 57% 30.19 in 10.0 mi NNE 4.6 mph - N/A   Unknown
3:55 PM 71.6 °F 55.4 °F 57% 30.19 in 10.0 mi Calm Calm - N/A   Unknown
4:15 PM 71.6 °F 57.2 °F 60% 30.19 in 10.0 mi Calm Calm - N/A   Unknown
4:35 PM 68.0 °F 55.4 °F 64% 30.19 in 10.0 mi Calm Calm - N/A   Unknown
4:55 PM 66.2 °F 57.2 °F 73% 30.19 in 10.0 mi Calm Calm - N/A   Unknown
5:15 PM 62.6 °F 57.2 °F 82% 30.20 in 10.0 mi Calm Calm - N/A   Unknown
5:35 PM 60.8 °F 55.4 °F 82% 30.20 in 10.0 mi Calm Calm - N/A   Unknown
5:55 PM 59.0 °F 55.4 °F 88% 30.20 in 10.0 mi Calm Calm - N/A   Unknown
6:15 PM 59.0 °F 55.4 °F 88% 30.21 in 10.0 mi Calm Calm - N/A   Unknown
6:35 PM 57.2 °F 55.4 °F 94% 30.21 in 10.0 mi Calm Calm - N/A   Unknown
6:55 PM 55.4 °F 55.4 °F 100% 30.21 in 10.0 mi Calm Calm - N/A   Unknown
7:15 PM 55.4 °F 55.4 °F 100% 30.22 in 10.0 mi Calm Calm - N/A   Unknown
7:35 PM 59.0 °F 57.2 °F 94% 30.23 in 10.0 mi Calm Calm - N/A   Unknown
7:55 PM 55.4 °F 55.4 °F 100% 30.23 in 10.0 mi Calm Calm - N/A   Unknown
8:15 PM 59.0 °F 57.2 °F 94% 30.23 in 10.0 mi Calm Calm - N/A   Unknown
8:35 PM 59.0 °F 55.4 °F 88% 30.23 in 10.0 mi Calm Calm - N/A   Unknown
8:55 PM 57.2 °F 55.4 °F 94% 30.24 in 10.0 mi Calm Calm - N/A   Unknown
9:15 PM 55.4 °F 55.4 °F 100% 30.25 in 10.0 mi Calm Calm - N/A   Unknown
9:35 PM 59.0 °F 57.2 °F 94% 30.26 in 10.0 mi Calm Calm - N/A   Unknown
9:55 PM 57.2 °F 55.4 °F 94% 30.26 in 10.0 mi Calm Calm - N/A   Unknown
10:15 PM 57.2 °F 57.2 °F 100% 30.27 in 10.0 mi Calm Calm - N/A   Unknown
10:35 PM 57.2 °F 55.4 °F 94% 30.27 in 10.0 mi Calm Calm - N/A   Unknown
10:55 PM 59.0 °F 55.4 °F 88% 30.28 in 10.0 mi North 3.5 mph - N/A   Unknown
11:15 PM 60.8 °F 55.4 °F 82% 30.29 in 10.0 mi North 6.9 mph - N/A   Unknown
11:35 PM 60.8 °F 55.4 °F 82% 30.29 in 10.0 mi North 8.1 mph - N/A   Unknown
11:55 PM 60.8 °F 55.4 °F 82% 30.30 in 10.0 mi North 9.2 mph - N/A   Unknown